This demonstration page uses our WeatherBlox Daily Observations layout. Learn more.

Left ArrowRight Arrow

Hourly Observations for January 4, 2016

Temp ( °F °C ) Dew Point ( °F °C ) Humidity (%) Winds ( mph kmh ) Pressure ( in mb ) Visibility ( mi km ) Precip ( " mm )
12:51 am 00:51 Clear 43 6.1 32 undefined 65 65 SE 14 22 30.09 1019 10 16 N/A
1:51 am 01:51 Clear 43 6.1 32 undefined 65 65 SE 15 24 30.09 1019 10 16 N/A
2:51 am 02:51 Clear 42 5.6 32 undefined 68 68 SE 13 20 30.06 1018 10 16 N/A
3:51 am 03:51 Clear 42 5.6 32 undefined 68 68 ESE 9 15 30.07 1018 10 16 N/A
4:51 am 04:51 Clear 42 5.6 32 undefined 68 68 SE 9 15 30.05 1018 10 16 N/A
5:51 am 05:51 Clear 42 5.6 32 undefined 68 68 SE 10 17 30.06 1018 10 16 N/A
6:51 am 06:51 Mostly Clear 45 7.2 32 undefined 61 61 ESE 14 22 30.05 1018 10 16 N/A
7:51 am 07:51 Mostly Sunny 45 7.2 32 undefined 61 61 E 14 22 30.06 1018 10 16 N/A
8:51 am 08:51 Cloudy 45 7.2 34 1.1 66 66 SSE 10 17 30.06 1018 10 16 N/A
9:51 am 09:51 Cloudy 47 8.3 34 1.1 61 61 SSE 10 17 30.06 1018 10 16 N/A
10:51 am 10:51 Cloudy 50 10 34 1.1 54 54 SE 16 26 30.04 1017 10 16 N/A
11:51 am 11:51 Cloudy 51 10.6 33 0.6 50 50 SSE 13 20 30.01 1016 10 16 N/A
12:51 pm 12:51 Cloudy 50 10 35 1.7 57 57 SSE 15 24 29.98 1015 10 16 N/A
1:51 pm 13:51 Cloudy with Light Rain 50 10 36 2.2 59 59 SSE 14 22 29.93 1014 10 16 N/A
2:51 pm 14:51 Cloudy with Light Rain 48 8.9 41 5 77 77 S 13 20 29.93 1013 10 16 N/A
3:51 pm 15:51 Cloudy with Light Rain 45 7.2 41 5 86 86 SW 10 17 29.95 1014 4 6 0.01 0.25
4:37 pm 16:37 Cloudy with Rain 44 6.7 41 5 89 89 W 10 17 30.03 1017 3 4 0.02 0.51
4:47 pm 16:47 Cloudy with Heavy Rain 45 7 41 5 87 87 W 9 15 30.03 1017 1 2 0.05 1.27
4:51 pm 16:51 Cloudy with Rain 44 6.7 41 5 89 89 WSW 12 19 30.00 1016 1 2 0.06 1.52
5:14 pm 17:14 Cloudy with Rain 43 6 43 6 100 100 ESE 8 13 30.03 1017 3 5 N/A
5:27 pm 17:27 Cloudy with Heavy Rain 43 6.1 42 5.6 97 97 ESE 15 24 30.00 1016 3 4 0.13 3.30
5:36 pm 17:36 Cloudy with Light Rain 43 6.1 41 5 93 93 ESE 17 28 30.00 1016 4 6 0.16 4.06
5:51 pm 17:51 Cloudy with Light Rain 43 6.1 41 5 93 93 SE 16 26 29.95 1014 7 11 0.17 4.32
6:42 pm 18:42 Cloudy with Rain 43 6.1 42 5.6 97 97 SE 16 26 30.00 1016 5 8 0.08 2.03
6:51 pm 18:51 Cloudy with Light Rain 43 6.1 42 5.6 97 97 SSE 7 11 29.98 1015 6 10 0.08 2.03
7:24 pm 19:24 Cloudy with Light Rain 41 5 40 4.4 96 96 SSE 13 20 30.03 1017 10 16 0.02 0.51
7:51 pm 19:51 Cloudy 42 5.6 41 5 96 96 VRB 3 6 30.00 1016 10 16 0.02 0.51
8:09 pm 20:09 Cloudy with Light Rain 42 5.6 41 5 96 96 SE 10 17 30.06 1018 5 8 0.03 0.76
8:29 pm 20:29 Cloudy with Light Rain 42 5.6 40 4.4 92 92 SSE 13 20 30.06 1018 10 16 0.03 0.76
8:51 pm 20:51 Cloudy with Light Rain 42 5.6 41 5 96 96 undefined N/A 30.02 1017 7 11 0.04 1.02
9:51 pm 21:51 Cloudy with Light Rain 39 3.9 38 3.3 96 96 S 7 11 30.04 1017 10 16 0.03 0.76
10:01 pm 22:01 Cloudy with Light Rain 39 3.9 38 3.3 96 96 SE 5 7 30.12 1020 7 11 0.01 0.25
10:21 pm 22:21 Cloudy with Rain 39 3.9 38 3.3 96 96 E 5 7 30.12 1020 6 10 0.03 0.76
10:51 pm 22:51 Cloudy with Light Rain 39 3.9 38 3.3 96 96 E 5 7 30.02 1017 9 14 0.05 1.27
11:03 pm 23:03 Cloudy with Light Rain 39 3.9 38 3.3 96 96 ESE 5 7 30.12 1020 3 4 N/A
11:21 pm 23:21 Cloudy with Light Rain 39 3.9 38 3.3 96 96 SE 5 7 30.12 1020 10 16 0.01 0.25
11:51 pm 23:51 Cloudy 40 4.4 39 3.9 97 97 SE 5 7 30.01 1016 9 14 0.01 0.25

Powered by AerisWeather